Погода в Новоселках

Россия / Ульяновская область     53°54′25″N   49°46′21″E
темп.,
°C
ветер,
м/с
пор.,
м/с
влажн.,
%
обл.,
%
осадки,
мм/ч
давл.,
гПа
погр.,
м
18 мая, вт
вт1801:00+19с33534 0.0 101731
04:00+18всв336310 0.0 101725
07:00+22ююв22525 0.0 101681
10:00+28ююз01300 0.0 1016475
13:00+31юв12205 0.0 10162395
16:00+31юв01180 0.0 10152945
19:00+28юв11310 0.0 101511
22:00+21в4116263 0.0 1015194
19 мая, ср
ср1901:00+19в4135711 0.0 1015289
04:00+18в412684 0.0 1016269
07:00+19в511660 0.0 1016352
10:00+24в68475 0.0 1016767
13:00+27в77360 0.0 10161343
16:00+28вюв77340 0.0 10151637
19:00+24вюв611500 0.0 1015482
22:00+21вюв513590 0.0 1016341
20 мая, чт
чт2001:00+19вюв6156099 0.0 1016409
04:00+17вюв614590 0.0 1016413
07:00+17вюв714640 0.0 1017501
10:00+22юв811480 0.0 10161066
13:00+24юв810380 0.0 10151909
16:00+25юв89382 0.0 10142400
19:00+21юв8124916 0.0 1013768
22:00+17ююв5106372 0.0 1013303
21 мая, пт
пт2101:00+15ююз2487100 0.3 101381
04:00+15ююв4793100 1.8 1013288
07:00+16ю57835 0.2 1014356
10:00+20юз79610 1.1 10151209
13:00+22юз785186 0.5 10151944
16:00+21юз795742 0.6 10161166
19:00+20ююз465960 0.0 1017332
22:00+17зюз3367100 0.0 101853
22 мая, сб
сб2201:00+15юз347626 0.0 102064
04:00+13ююз118590 0.0 102110
07:00+17ююв2374100 0.0 1021137
10:00+22ююв445499 0.0 1021790
13:00+25ю564499 0.0 10201598
16:00+26ю583871 0.0 10191775
19:00+24ююз495519 0.0 1018298
22:00+20ю51357100 0.0 1018251